KK5DC Weather Reports


Display with metric or nautical units.
time (UTC)temp
F
wind
direction
speed
MPH
gust
MPH
rain 1hr
in
rain 24hr
in
rain mn
in
humidity
%
barometer
mb
20260905073514 76 194 0.0 2.0 0.00 0.01 0.00 88 1014.7
20260905073503 76 204 0.0 2.0 0.00 0.01 0.00 88 1014.1
20260905073040 76 194 0.0 2.0 0.00 0.01 0.00 89 1014.7
20260905073007 76 221 1.0 2.0 0.00 0.01 0.00 89 1014.1
20260905072507 76 194 0.0 2.0 0.00 0.01 0.00 88 1014.8
20260905072504 76 219 0.0 2.0 0.00 0.01 0.00 88 1014.1
20260905072011 76 194 0.0 2.0 0.00 0.01 0.00 88 1014.9
20260905072005 76 219 0.0 3.0 0.00 0.01 0.00 88 1014.2
20260905071531 76 194 0.0 2.0 0.00 0.01 0.00 88 1014.9
20260905071514 76 175 0.0 3.0 0.00 0.01 0.00 88 1014.2
20260905071006 76 194 0.0 2.0 0.00 0.01 0.00 88 1014.9
20260905071003 76 171 1.0 2.0 0.00 0.01 0.00 88 1014.2
20260905070511 77 207 0.0 2.0 0.00 0.01 0.00 88 1014.9
20260905070508 77 161 0.0 0.0 0.00 0.01 0.00 88 1014.2
20260905070024 77 161 0.0 1.0 0.00 0.01 0.00 88 1014.2
20260905070019 77 194 0.0 0.0 0.00 0.01 0.00 88 1015.0
20260905065509 77 194 0.0 0.0 0.00 0.01 0.00 87 1015.0
20260905065503 77 161 0.0 2.0 0.00 0.01 0.00 87 1014.3
20260905065005 77 194 0.0 0.0 0.00 0.01 0.00 87 1015.1
20260905064525 77 194 0.0 2.0 0.00 0.01 0.00 86 1015.1
20260905064014 77 161 1.0 2.0 0.00 0.01 0.00 86 1014.4
20260905063512 78 192 0.0 2.0 0.00 0.01 0.00 86 1015.1
20260905063507 78 161 0.0 2.0 0.00 0.01 0.00 86 1014.3
20260905063020 78 192 0.0 2.0 0.00 0.01 0.00 86 1015.1
20260905063018 78 161 0.0 2.0 0.00 0.01 0.00 86 1014.4
20260905062509 78 193 0.0 2.0 0.00 0.01 0.00 85 1015.2
20260905062503 78 161 0.0 2.0 0.00 0.01 0.00 85 1014.4
20260905062007 78 173 0.0 2.0 0.00 0.01 0.00 85 1015.2
20260905062004 78 161 0.0 4.0 0.00 0.01 0.00 85 1014.4
20260905061515 78 173 0.0 2.0 0.00 0.01 0.00 85 1015.2
20260905061510 78 176 1.0 5.0 0.00 0.01 0.00 85 1014.4
20260905061007 78 204 0.0 2.0 0.00 0.01 0.00 84 1015.2
20260905060507 78 188 1.0 4.0 0.00 0.01 0.00 84 1014.4
20260905060013 78 198 0.0 2.0 0.00 0.01 0.00 84 1015.1
20260905060011 78 148 1.0 3.0 0.00 0.01 0.00 84 1014.4
20260905055507 79 156 1.0 3.0 0.00 0.01 0.00 84 1014.3
20260905055011 79 168 1.0 3.0 0.00 0.01 0.00 83 1014.4
20260905055008 79 182 0.0 3.0 0.00 0.01 0.00 83 1015.2
20260905054511 79 165 1.0 6.0 0.00 0.01 0.00 83 1014.5
20260905054508 79 187 0.0 2.0 0.00 0.01 0.00 83 1015.2
20260905054008 79 171 0.0 2.0 0.00 0.01 0.00 83 1015.3
20260905054006 79 149 2.0 5.0 0.00 0.01 0.00 83 1014.5
20260905053512 79 146 1.0 5.0 0.00 0.01 0.00 83 1014.5
20260905053030 79 159 2.0 6.0 0.00 0.01 0.00 82 1014.5
20260905053027 79 189 0.0 2.0 0.00 0.01 0.00 82 1015.2
20260905052506 79 176 0.0 2.0 0.00 0.01 0.00 82 1015.2
20260905052503 79 179 1.0 6.0 0.00 0.01 0.00 82 1014.5
20260905052011 79 142 1.0 7.0 0.00 0.01 0.00 82 1014.5
20260905052003 79 180 0.0 3.0 0.00 0.01 0.00 82 1015.3
20260905051508 79 193 1.0 3.0 0.00 0.01 0.00 82 1015.3
20260905051506 79 165 2.0 7.0 0.00 0.01 0.00 82 1014.5
20260905051007 79 186 0.0 3.0 0.00 0.01 0.00 81 1015.3
20260905051004 79 134 1.0 4.0 0.00 0.01 0.00 81 1014.5
20260905050506 79 71 0.0 3.0 0.00 0.01 0.00 81 1015.2
20260905050504 79 132 1.0 6.0 0.00 0.01 0.00 81 1014.4
20260905050015 79 215 0.0 4.0 0.00 0.01 0.00 82 1015.2
20260905045510 79 165 1.0 4.0 0.00 0.01 0.01 82 1015.2
20260905045508 79 147 1.0 6.0 0.00 0.01 0.01 82 1014.4
20260905045006 78 180 1.0 6.0 0.00 0.01 0.01 83 1014.4
20260905044524 78 180 0.0 2.0 0.00 0.01 0.01 83 1015.1
20260905044520 78 157 1.0 3.0 0.00 0.01 0.01 83 1014.5
20260905044011 78 152 1.0 3.0 0.00 0.01 0.01 84 1014.5
20260905044009 78 169 0.0 2.0 0.00 0.01 0.01 84 1015.2
20260905043511 77 161 0.0 3.0 0.00 0.01 0.01 85 1014.5
20260905043503 77 167 0.0 2.0 0.00 0.01 0.01 85 1015.2
20260905043016 77 153 0.0 1.0 0.00 0.01 0.01 85 1015.2
20260905042516 77 153 0.0 1.0 0.00 0.01 0.01 85 1015.3
20260905042511 77 65 0.0 1.0 0.00 0.01 0.01 85 1014.5
20260905042016 77 75 0.0 0.0 0.00 0.01 0.01 85 1014.4
20260905042012 77 153 0.0 0.0 0.00 0.01 0.01 85 1015.3
20260905041515 77 153 0.0 0.0 0.00 0.01 0.01 85 1015.2
20260905041510 77 75 0.0 0.0 0.00 0.01 0.01 85 1014.4
20260905041009 77 75 0.0 0.0 0.00 0.01 0.01 84 1014.4
20260905041006 77 153 0.0 0.0 0.00 0.01 0.01 84 1015.3
20260905040514 77 75 0.0 0.0 0.00 0.01 0.01 84 1014.5
20260905040505 77 153 0.0 0.0 0.00 0.01 0.01 84 1015.3
20260905040016 78 153 0.0 2.0 0.00 0.01 0.01 84 1015.2
20260905040012 78 75 0.0 0.0 0.00 0.01 0.01 84 1014.4
20260905035508 78 153 0.0 2.0 0.00 0.01 0.01 83 1015.2
20260905035506 78 75 0.0 2.0 0.00 0.01 0.01 83 1014.4
20260905035009 78 165 0.0 2.0 0.00 0.01 0.01 83 1015.2
20260905034525 78 163 0.0 0.0 0.00 0.01 0.01 83 1015.2
20260905034519 78 75 0.0 0.0 0.00 0.01 0.01 83 1014.4
20260905034006 78 75 0.0 0.0 0.00 0.01 0.01 83 1014.3
20260905034004 78 163 0.0 0.0 0.00 0.01 0.01 83 1015.1
20260905033507 78 75 0.0 0.0 0.00 0.01 0.01 82 1014.4
20260905033027 78 75 0.0 1.0 0.00 0.01 0.01 81 1014.3
20260905033024 78 163 0.0 1.0 0.00 0.01 0.01 81 1015.0
20260905032513 79 75 0.0 1.0 0.00 0.01 0.01 81 1014.3
20260905032503 79 163 0.0 1.0 0.00 0.01 0.01 81 1015.0
20260905032008 79 163 0.0 2.0 0.00 0.01 0.01 80 1015.0
20260905031531 79 75 0.0 2.0 0.00 0.01 0.01 80 1014.3
20260905031526 79 163 0.0 1.0 0.00 0.01 0.01 80 1014.9
20260905031016 79 123 0.0 2.0 0.00 0.01 0.01 81 1014.9
20260905031013 79 74 0.0 2.0 0.00 0.01 0.01 81 1014.3
20260905030510 79 123 0.0 2.0 0.00 0.01 0.01 80 1014.9
20260905030506 79 74 0.0 2.0 0.00 0.01 0.01 80 1014.2
20260905030028 79 98 0.0 2.0 0.00 0.01 0.01 80 1014.2
20260905030007 79 140 0.0 2.0 0.00 0.01 0.01 80 1015.0
20260905025514 79 98 0.0 2.0 0.00 0.01 0.01 80 1014.2
20260905025506 79 176 0.0 2.0 0.00 0.01 0.01 80 1015.0
20260905025006 80 98 0.0 2.0 0.00 0.01 0.01 79 1014.1
20260905024516 80 198 0.0 2.0 0.00 0.01 0.01 79 1014.7
20260905024514 80 155 0.0 2.0 0.00 0.01 0.01 79 1014.1
20260905024011 80 211 0.0 2.0 0.00 0.01 0.01 78 1014.7
20260905024006 80 155 0.0 2.0 0.00 0.01 0.01 78 1014.1
20260905023511 80 211 0.0 2.0 0.00 0.01 0.01 78 1014.7
20260905023010 80 171 0.0 2.0 0.00 0.01 0.01 79 1014.6
20260905022510 79 82 0.0 1.0 0.00 0.01 0.01 80 1013.9
20260905022014 79 90 0.0 1.0 0.00 0.01 0.01 80 1013.8
20260905022012 79 132 0.0 1.0 0.00 0.01 0.01 80 1014.4
20260905021534 80 90 0.0 2.0 0.00 0.01 0.01 80 1013.7
20260905021009 79 128 0.0 2.0 0.00 0.01 0.01 81 1014.3
20260905021007 79 91 0.0 2.0 0.00 0.01 0.01 81 1013.6
20260905020516 79 86 0.0 2.0 0.00 0.01 0.01 81 1013.6
20260905020511 79 84 0.0 2.0 0.00 0.01 0.01 81 1014.3
20260905020044 79 69 0.0 2.0 0.00 0.01 0.01 81 1013.6
20260905020030 79 107 0.0 2.0 0.00 0.01 0.01 81 1014.2
20260905015517 79 147 0.0 1.0 0.00 0.01 0.01 81 1013.5
20260905015507 79 132 0.0 0.0 0.00 0.01 0.01 81 1014.2
20260905015012 79 147 0.0 1.0 0.00 0.01 0.01 80 1013.5
20260905015005 79 132 0.0 0.0 0.00 0.01 0.01 80 1014.2
20260905014530 80 147 0.0 1.0 0.00 0.01 0.01 80 1013.3
20260905014512 80 132 0.0 0.0 0.00 0.01 0.01 80 1014.1
20260905014007 80 147 0.0 0.0 0.00 0.01 0.01 79 1013.3
20260905013509 80 147 0.0 0.0 0.00 0.01 0.01 79 1013.4
20260905013028 80 147 0.0 0.0 0.00 0.01 0.01 79 1013.4
20260905013020 80 132 0.0 0.0 0.00 0.01 0.01 79 1014.0
20260905012512 81 132 0.0 0.0 0.00 0.01 0.01 78 1013.9
20260905012509 81 147 0.0 0.0 0.00 0.01 0.01 78 1013.3
20260905012010 81 147 0.0 0.0 0.00 0.01 0.01 77 1013.2
20260905012006 81 132 0.0 0.0 0.00 0.01 0.01 77 1014.0
20260905011532 81 147 0.0 0.0 0.00 0.01 0.01 76 1013.1
20260905011521 81 132 0.0 0.0 0.00 0.01 0.01 76 1013.9
20260905011013 82 132 0.0 1.0 0.00 0.01 0.01 75 1013.9
20260905010516 82 147 0.0 1.0 0.00 0.01 0.01 74 1013.1
20260905010019 83 152 0.0 1.0 0.00 0.01 0.01 74 1013.8
20260905010015 83 147 0.0 2.0 0.00 0.01 0.01 74 1012.9
20260905005514 83 147 0.0 2.0 0.00 0.01 0.01 72 1012.8
20260905005509 83 34 0.0 2.0 0.00 0.01 0.01 72 1013.7
20260905005016 84 152 0.0 2.0 0.00 0.01 0.01 72 1012.7
20260905005014 84 34 0.0 2.0 0.00 0.01 0.01 72 1013.6
20260905004536 84 171 0.0 7.0 0.00 0.01 0.01 71 1012.8
20260905004512 84 30 0.0 1.0 0.00 0.01 0.01 71 1013.5
20260905004008 85 157 1.0 7.0 0.00 0.01 0.01 70 1012.8
20260905004004 85 30 0.0 2.0 0.00 0.01 0.01 70 1013.5
20260905003512 85 153 1.0 7.0 0.00 0.01 0.01 69 1012.8
20260905003507 85 30 0.0 2.0 0.00 0.01 0.01 69 1013.7
20260905003021 85 30 0.0 2.0 0.00 0.01 0.01 69 1013.4
20260905003014 85 181 1.0 5.0 0.00 0.01 0.01 69 1012.7
20260905002507 85 65 0.0 3.0 0.00 0.01 0.01 69 1013.4
20260905002012 86 172 0.0 3.0 0.00 0.01 0.01 69 1013.4
20260905002010 86 139 1.0 4.0 0.00 0.01 0.01 69 1012.6
20260905001524 86 32 1.0 3.0 0.00 0.01 0.01 68 1013.4
20260905001013 86 152 1.0 8.0 0.00 0.01 0.01 68 1012.7
20260905001007 86 185 0.0 2.0 0.00 0.01 0.01 68 1013.5
20260905000513 86 154 1.0 8.0 0.00 0.01 0.01 69 1012.5
20260905000508 86 127 0.0 3.0 0.00 0.01 0.01 69 1013.5
20260905000033 87 265 0.0 4.0 0.00 0.01 0.01 68 1013.5
20260904235515 87 185 1.0 4.0 0.00 0.01 0.01 68 1013.4
20260904235513 87 128 2.0 8.0 0.00 0.01 0.01 68 1012.7
20260904235009 87 180 1.0 3.0 0.00 0.01 0.01 68 1013.5
20260904234535 87 162 1.0 4.0 0.00 0.01 0.01 68 1013.4
20260904234528 87 195 3.0 10.0 0.00 0.01 0.01 68 1012.6
20260904234021 87 156 1.0 5.0 0.00 0.01 0.01 67 1013.3
20260904234016 87 133 4.0 9.0 0.00 0.01 0.01 67 1012.6
20260904233516 87 113 2.0 8.0 0.00 0.01 0.01 67 1012.6
20260904233507 87 205 1.0 6.0 0.00 0.01 0.01 67 1013.3
20260904233023 88 93 4.0 9.0 0.00 0.01 0.01 67 1012.7
20260904233014 88 219 1.0 6.0 0.00 0.01 0.01 67 1013.4
20260904232505 88 156 0.0 7.0 0.00 0.01 0.01 66 1013.6
20260904232503 88 159 4.0 9.0 0.00 0.01 0.01 66 1012.8
20260904232011 88 166 2.0 7.0 0.00 0.01 0.01 66 1013.7
20260904232005 88 64 3.0 11.0 0.00 0.01 0.01 66 1012.8
20260904231519 88 93 3.0 11.0 0.00 0.01 0.01 66 1012.8
20260904231011 89 192 0.0 8.0 0.00 0.01 0.01 66 1013.6
20260904231004 89 140 3.0 10.0 0.00 0.01 0.01 66 1012.8
20260904230512 89 9 1.0 8.0 0.00 0.01 0.01 66 1013.6
20260904230504 89 163 3.0 8.0 0.00 0.01 0.01 66 1012.7
20260904230014 89 136 1.0 6.0 0.00 0.01 0.01 66 1013.5
20260904230004 89 11 3.0 8.0 0.00 0.01 0.01 66 1012.7
20260904225515 89 120 1.0 5.0 0.00 0.01 0.01 64 1013.4
20260904225507 89 59 2.0 10.0 0.00 0.01 0.01 64 1012.7
20260904225013 89 315 1.0 8.0 0.00 0.01 0.01 64 1013.4
20260904225002 89 169 2.0 10.0 0.00 0.01 0.01 64 1012.7
20260904224538 89 173 2.0 12.0 0.00 0.01 0.01 64 1013.4
20260904224507 89 178 2.0 12.0 0.00 0.01 0.01 64 1012.7
20260904224007 89 56 1.0 12.0 0.00 0.01 0.01 63 1013.6
20260904224004 89 117 3.0 11.0 0.00 0.01 0.01 63 1012.7
20260904223511 90 223 2.0 9.0 0.00 0.01 0.01 63 1013.6
20260904223503 90 40 4.0 11.0 0.00 0.01 0.01 63 1012.8
20260904223029 90 202 2.0 9.0 0.00 0.01 0.01 62 1013.6
20260904223009 90 80 3.0 13.0 0.00 0.01 0.01 62 1012.8
20260904222504 90 134 2.0 9.0 0.00 0.01 0.01 62 1013.6
20260904222009 89 144 2.0 9.0 0.00 0.01 0.01 62 1012.7
20260904222004 89 126 2.0 8.0 0.00 0.01 0.01 62 1013.4
20260904221522 89 98 1.0 5.0 0.00 0.01 0.01 62 1013.4
20260904221505 89 86 3.0 7.0 0.00 0.01 0.01 62 1012.8
20260904221010 89 85 2.0 8.0 0.00 0.01 0.01 1013.5
20260904221003 89 136 2.0 7.0 0.00 0.01 0.01 1012.8
20260904220510 89 178 1.0 8.0 0.00 0.01 0.01 61 1012.8
20260904220034 89 194 2.0 8.0 0.00 0.01 0.01 61 1013.8
20260904220004 89 121 1.0 8.0 0.00 0.01 0.01 61 1012.9
20260904215512 89 121 1.0 6.0 0.00 0.01 0.01 61 1013.9
20260904215503 89 89 2.0 8.0 0.00 0.01 0.01 61 1013.1
20260904215008 89 95 1.0 6.0 0.00 0.01 0.01 62 1013.9
20260904215003 89 50 1.0 6.0 0.00 0.01 0.01 62 1013.3
20260904214534 89 234 1.0 5.0 0.00 0.01 0.01 63 1013.9
20260904214505 89 81 2.0 9.0 0.00 0.01 0.01 63 1013.3
20260904214016 89 229 1.0 5.0 0.00 0.01 0.01 64 1014.0
20260904214003 89 159 2.0 9.0 0.00 0.01 0.01 64 1013.2
20260904213514 88 199 1.0 3.0 0.00 0.01 0.01 62 1014.2
20260904213504 88 153 2.0 8.0 0.00 0.01 0.01 62 1013.3
20260904213020 88 163 1.0 3.0 0.00 0.01 0.01 62 1014.0
20260904213013 88 96 3.0 8.0 0.00 0.01 0.01 62 1013.3
20260904212517 88 139 1.0 3.0 0.00 0.01 0.01 64 1014.1
20260904212504 88 63 2.0 5.0 0.00 0.01 0.01 64 1013.3
20260904212016 88 151 1.0 7.0 0.00 0.01 0.01 62 1014.3
20260904212004 88 91 2.0 7.0 0.00 0.01 0.01 62 1013.4
20260904211516 89 88 1.0 7.0 0.00 0.01 0.01 62 1013.4
20260904211513 89 169 1.0 7.0 0.00 0.01 0.01 62 1014.4
20260904211008 89 250 0.0 3.0 0.00 0.01 0.01 63 1014.4
20260904210507 89 278 2.0 3.0 0.00 0.01 0.01 62 1014.3
20260904210503 89 77 2.0 11.0 0.00 0.01 0.01 62 1013.6
20260904210031 89 182 1.0 5.0 0.00 0.01 0.01 63 1014.2
20260904210014 89 181 2.0 11.0 0.00 0.01 0.01 63 1013.5
20260904205514 90 63 2.0 8.0 0.00 0.01 0.01 63 1013.3
20260904205015 90 150 2.0 10.0 0.00 0.01 0.01 61 1013.3
20260904205010 90 206 1.0 6.0 0.00 0.01 0.01 61 1014.1
20260904204530 90 216 1.0 6.0 0.00 0.01 0.01 59 1014.1
20260904204510 90 155 5.0 10.0 0.00 0.01 0.01 59 1013.3
20260904204008 91 146 1.0 4.0 0.00 0.01 0.01 59 1014.1
20260904204004 91 95 1.0 7.0 0.00 0.01 0.01 59 1013.4
20260904203510 90 187 0.0 2.0 0.00 0.01 0.01 58 1014.2
20260904203502 90 154 2.0 7.0 0.00 0.01 0.01 58 1013.5
20260904203043 90 267 0.0 3.0 0.00 0.01 0.01 59 1014.4
20260904203010 90 161 1.0 5.0 0.00 0.01 0.01 59 1013.5
20260904202520 90 157 0.0 3.0 0.00 0.01 0.01 58 1014.4
20260904202504 90 160 1.0 8.0 0.00 0.01 0.01 58 1013.5
20260904202010 91 107 1.0 2.0 0.00 0.01 0.01 57 1014.4
20260904202002 91 152 2.0 8.0 0.00 0.01 0.01 57 1013.7
20260904201528 91 240 0.0 3.0 0.00 0.01 0.01 60 1014.4
20260904201511 91 144 2.0 5.0 0.00 0.01 0.01 60 1013.8
20260904201016 91 98 1.0 3.0 0.00 0.01 0.01 59 1014.4
20260904201003 91 142 1.0 8.0 0.00 0.01 0.01 59 1013.9
20260904200509 91 231 0.0 3.0 0.00 0.01 0.01 57 1014.5
20260904200019 91 223 1.0 3.0 0.00 0.01 0.01 57 1014.7
20260904195512 91 105 0.0 5.0 0.00 0.01 0.01 59 1014.7
20260904195504 91 180 0.0 8.0 0.00 0.01 0.01 59 1013.9
20260904195008 91 196 1.0 5.0 0.00 0.01 0.01 57 1014.9
20260904194522 93 71 2.0 10.0 0.00 0.01 0.01 57 1014.0
20260904194013 93 165 1.0 10.0 0.00 0.01 0.01 55 1014.0
20260904194010 93 176 2.0 3.0 0.00 0.01 0.01 55 1014.7
20260904193512 93 242 1.0 7.0 0.00 0.01 0.01 58 1014.7
20260904193503 93 166 2.0 10.0 0.00 0.01 0.01 58 1014.0
20260904193016 92 138 1.0 7.0 0.00 0.01 0.01 59 1014.7
20260904193008 92 158 2.0 7.0 0.00 0.01 0.01 59 1014.1
20260904192510 91 124 1.0 3.0 0.00 0.01 0.01 58 1014.7
20260904192504 91 173 3.0 7.0 0.00 0.01 0.01 58 1014.2
20260904192016 90 225 0.0 3.0 0.00 0.01 0.01 60 1014.9
20260904192003 90 184 1.0 6.0 0.00 0.01 0.01 60 1014.3
20260904191541 90 102 0.0 3.0 0.00 0.01 0.01 62 1015.0
20260904191511 90 113 1.0 6.0 0.00 0.01 0.01 62 1014.3
20260904191012 89 93 1.0 2.0 0.00 0.01 0.01 65 1015.2
20260904191006 89 145 1.0 5.0 0.00 0.01 0.01 65 1014.4
20260904190514 89 209 0.0 2.0 0.00 0.01 0.01 65 1015.2
20260904190512 89 126 1.0 5.0 0.00 0.01 0.01 65 1014.3
20260904190040 89 173 0.0 2.0 0.00 0.01 0.01 65 1015.2
20260904190012 89 178 2.0 5.0 0.00 0.01 0.01 65 1014.4
20260904185508 89 189 2.0 5.0 0.00 0.01 0.01 61 1014.5
20260904185010 90 214 3.0 6.0 0.00 0.01 0.01 63 1014.7
20260904184527 90 174 0.0 4.0 0.00 0.01 0.01 61 1015.4
20260904184506 90 184 2.0 6.0 0.00 0.01 0.01 61 1014.8
20260904184011 90 188 3.0 4.0 0.00 0.01 0.01 58 1015.5
20260904184009 90 205 4.0 6.0 0.00 0.01 0.01 58 1014.9
20260904183512 91 153 1.0 7.0 0.00 0.01 0.01 60 1015.0
20260904183510 91 120 0.0 2.0 0.00 0.01 0.01 60 1015.6
20260904183030 90 146 3.0 7.0 0.00 0.01 0.01 61 1014.9
20260904183027 90 91 1.0 3.0 0.00 0.01 0.01 61 1015.5
20260904182512 90 306 1.0 4.0 0.00 0.01 0.01 60 1015.6
20260904182503 90 275 2.0 7.0 0.00 0.01 0.01 60 1014.9
20260904182023 90 225 2.0 4.0 0.00 0.01 0.01 62 1015.7
20260904182014 90 200 3.0 8.0 0.00 0.01 0.01 62 1014.8
20260904181526 91 218 1.0 4.0 0.00 0.01 0.01 63 1015.7
20260904181520 91 220 2.0 8.0 0.00 0.01 0.01 63 1014.9
20260904181017 91 212 0.0 3.0 0.00 0.01 0.01 62 1015.7
20260904181003 91 186 2.0 7.0 0.00 0.01 0.01 62 1015.0
20260904180506 91 167 3.0 9.0 0.00 0.01 0.01 61 1015.1
20260904180504 91 115 0.0 6.0 0.00 0.01 0.01 61 1015.8
20260904180012 90 103 3.0 9.0 0.00 0.01 0.01 64 1015.0
20260904175507 90 190 3.0 10.0 0.00 0.01 0.01 61 1015.2
20260904175502 90 177 0.0 7.0 0.00 0.01 0.01 61 1015.8
20260904175009 90 200 1.0 7.0 0.00 0.01 0.01 61 1015.9
20260904175006 90 213 3.0 10.0 0.00 0.01 0.01 61 1015.3
20260904174518 90 190 4.0 10.0 0.00 0.01 0.01 63 1015.5
20260904174514 90 213 0.0 4.0 0.00 0.01 0.01 63 1016.0
20260904174010 90 154 4.0 10.0 0.00 0.01 0.01 60 1015.5
20260904174002 90 225 2.0 4.0 0.00 0.01 0.01 60 1016.2
20260904173512 90 194 5.0 8.0 0.00 0.01 0.01 60 1015.5
20260904173503 90 249 1.0 4.0 0.00 0.01 0.01 60 1016.3
20260904173020 90 199 3.0 11.0 0.00 0.01 0.01 60 1015.6
20260904173006 90 238 1.0 5.0 0.00 0.01 0.01 60 1016.4
20260904172512 90 190 6.0 11.0 0.00 0.01 0.01 58 1015.8
20260904172503 90 186 2.0 5.0 0.00 0.01 0.01 58 1016.3
20260904172014 90 167 4.0 9.0 0.00 0.01 0.01 64 1015.6
20260904172003 90 217 0.0 4.0 0.00 0.01 0.01 64 1016.2
20260904171509 90 181 2.0 9.0 0.00 0.01 0.01 62 1015.6
20260904171506 90 175 1.0 4.0 0.00 0.01 0.01 62 1016.2
20260904171008 90 217 3.0 9.0 0.00 0.01 0.01 64 1015.8
20260904171002 90 148 1.0 4.0 0.00 0.01 0.01 64 1016.3
20260904170506 90 241 2.0 4.0 0.00 0.01 0.01 62 1016.4
20260904170503 90 157 3.0 8.0 0.00 0.01 0.01 62 1015.8
20260904170013 89 219 1.0 4.0 0.00 0.01 0.01 67 1016.5
20260904170010 89 190 5.0 8.0 0.00 0.01 0.01 67 1015.8
20260904165507 89 188 3.0 8.0 0.00 0.01 0.01 66 1015.6
20260904165008 89 245 1.0 4.0 0.00 0.01 0.01 66 1016.4
20260904165006 89 201 3.0 10.0 0.00 0.01 0.01 66 1015.6
20260904164519 88 222 6.0 9.0 0.00 0.01 0.01 66 1015.6
20260904164505 88 192 2.0 4.0 0.00 0.01 0.01 66 1016.4
20260904164005 88 231 4.0 9.0 0.00 0.01 0.01 65 1015.8
20260904163513 88 209 1.0 3.0 0.00 0.01 0.01 67 1016.3
20260904163511 88 171 5.0 9.0 0.00 0.01 0.01 67 1015.7
20260904163023 88 246 4.0 11.0 0.00 0.01 0.01 65 1015.7
20260904163007 88 231 2.0 4.0 0.00 0.01 0.01 65 1016.4
20260904162512 89 182 4.0 11.0 0.00 0.01 0.01 66 1015.8
20260904162503 89 208 1.0 5.0 0.00 0.01 0.01 66 1016.4
20260904162008 90 196 6.0 9.0 0.00 0.01 0.01 66 1015.7
20260904162002 90 157 2.0 7.0 0.00 0.01 0.01 66 1016.3
20260904161525 89 227 4.0 9.0 0.00 0.01 0.01 65 1015.7
20260904161504 89 265 2.0 7.0 0.00 0.01 0.01 65 1016.2
20260904161019 88 266 4.0 8.0 0.00 0.01 0.01 68 1015.6
20260904161005 88 266 1.0 4.0 0.00 0.01 0.01 68 1016.3
20260904160503 88 227 4.0 8.0 0.00 0.01 0.01 67 1015.6
20260904160016 88 227 5.0 9.0 0.00 0.01 0.01 68 1015.6
20260904160008 88 214 2.0 6.0 0.00 0.01 0.01 68 1016.4
20260904155506 87 194 6.0 9.0 0.00 0.01 0.01 70 1015.6
20260904155006 87 188 4.0 10.0 0.00 0.01 0.01 71 1015.6
20260904155003 87 163 1.0 5.0 0.00 0.01 0.01 71 1016.4
20260904154521 86 218 2.0 5.0 0.00 0.01 0.01 70 1016.5
20260904154514 86 212 5.0 10.0 0.00 0.01 0.01 70 1015.7
20260904154010 86 217 3.0 11.0 0.00 0.01 0.01 72 1015.7
20260904154008 86 223 1.0 7.0 0.00 0.01 0.01 72 1016.2
20260904153508 86 194 6.0 11.0 0.00 0.01 0.01 73 1015.6
20260904153503 86 202 3.0 7.0 0.00 0.01 0.01 73 1016.2
20260904153018 85 156 6.0 10.0 0.00 0.01 0.01 74 1015.6
20260904153013 85 223 2.0 5.0 0.00 0.01 0.01 74 1016.2
20260904152509 85 188 6.0 10.0 0.00 0.01 0.01 77 1015.5
20260904152011 85 226 2.0 5.0 0.00 0.01 0.01 77 1016.1
20260904151529 84 183 6.0 10.0 0.00 0.01 0.01 78 1015.4
20260904151511 84 204 2.0 4.0 0.00 0.01 0.01 78 1016.1
20260904151006 84 196 6.0 10.0 0.00 0.01 0.01 79 1015.4
20260904151003 84 210 1.0 4.0 0.00 0.01 0.01 79 1016.2
20260904150514 84 227 7.0 10.0 0.00 0.01 0.01 78 1015.4
20260904150503 84 237 3.0 4.0 0.00 0.01 0.01 78 1016.2
20260904150033 85 202 7.0 9.0 0.00 0.01 0.01 80 1015.3
20260904150014 85 229 1.0 5.0 0.00 0.01 0.01 80 1016.2
20260904145507 85 157 6.0 12.0 0.00 0.01 0.01 81 1015.2
20260904145504 85 242 1.0 5.0 0.00 0.01 0.01 81 1016.1
20260904145010 85 175 8.0 11.0 0.00 0.01 0.01 81 1015.3
20260904145004 85 209 2.0 5.0 0.00 0.01 0.01 81 1016.1
20260904144528 85 261 4.0 9.0 0.00 0.01 0.01 81 1015.3
20260904144509 85 238 2.0 5.0 0.00 0.01 0.01 81 1016.0
20260904144007 84 242 1.0 3.0 0.00 0.01 0.01 85 1016.0
20260904143514 83 186 1.0 3.0 0.00 0.01 0.01 86 1015.9
20260904143505 83 216 4.0 6.0 0.00 0.01 0.01 86 1015.3
20260904143029 82 219 3.0 6.0 0.00 0.01 0.01 86 1015.3
20260904143018 82 227 1.0 3.0 0.00 0.01 0.01 86 1015.9
20260904142511 81 214 5.0 7.0 0.00 0.01 0.01 87 1015.3
20260904142504 81 205 1.0 4.0 0.00 0.01 0.01 87 1015.9
20260904142009 81 190 4.0 6.0 0.00 0.01 0.01 88 1015.3
20260904142007 81 196 0.0 4.0 0.00 0.01 0.01 88 1016.0
20260904141531 81 212 0.0 3.0 0.00 0.01 0.01 89 1016.0
20260904141523 81 175 2.0 6.0 0.00 0.01 0.01 89 1015.3
20260904141013 81 194 3.0 6.0 0.00 0.01 0.01 88 1015.2
20260904141011 81 212 0.0 3.0 0.00 0.01 0.01 88 1015.9
20260904140515 81 206 3.0 5.0 0.00 0.01 0.01 88 1015.2
20260904140503 81 235 1.0 3.0 0.00 0.01 0.01 88 1015.8
20260904140034 80 175 3.0 6.0 0.00 0.01 0.01 90 1015.1
20260904140004 80 211 0.0 2.0 0.00 0.01 0.01 90 1015.8
20260904135517 80 203 3.0 6.0 0.00 0.01 0.01 90 1015.0
20260904135504 80 209 0.0 3.0 0.00 0.01 0.01 90 1015.7
20260904135016 80 221 3.0 6.0 0.00 0.01 0.01 90 1014.8
20260904135004 80 221 0.0 3.0 0.00 0.01 0.01 90 1015.5
20260904134534 80 210 3.0 5.0 0.00 0.01 0.01 90 1014.7
20260904134509 80 225 2.0 3.0 0.00 0.01 0.01 90 1015.4
20260904134008 79 227 3.0 5.0 0.00 0.01 0.01 91 1014.7
20260904134005 79 213 0.0 3.0 0.00 0.01 0.01 91 1015.4
20260904133513 79 241 3.0 5.0 0.00 0.01 0.01 90 1014.6
20260904133507 79 227 1.0 2.0 0.00 0.01 0.01 90 1015.4
20260904133017 79 221 3.0 5.0 0.00 0.01 0.01 91 1014.6
20260904133012 79 232 1.0 2.0 0.00 0.01 0.01 91 1015.4
20260904132510 79 229 0.0 2.0 0.00 0.01 0.01 91 1015.4
20260904132010 79 200 2.0 5.0 0.00 0.01 0.01 91 1014.5
20260904131530 78 218 2.0 7.0 0.00 0.01 0.01 92 1014.5
20260904131508 78 205 1.0 3.0 0.00 0.01 0.01 92 1015.3
20260904131013 78 203 2.0 7.0 0.00 0.01 0.01 92 1014.4
20260904131007 78 217 1.0 3.0 0.00 0.01 0.01 92 1015.2
20260904130517 78 242 0.0 2.0 0.00 0.01 0.01 93 1015.2
20260904130511 78 201 3.0 7.0 0.00 0.01 0.01 93 1014.3
20260904130027 78 200 3.0 8.0 0.00 0.01 0.01 92 1014.2
20260904125514 78 211 4.0 8.0 0.00 0.01 0.01 93 1014.1
20260904125505 78 226 0.0 5.0 0.00 0.01 0.01 93 1015.0
20260904125012 78 205 5.0 8.0 0.00 0.01 0.01 93 1014.1
20260904125005 78 211 1.0 5.0 0.00 0.01 0.01 93 1014.9
20260904124527 78 219 4.0 5.0 0.01 0.01 0.01 93 1014.3
20260904124509 78 225 1.0 3.0 0.01 0.01 0.01 93 1014.7
20260904124016 78 184 3.0 5.0 0.01 0.01 0.01 93 1014.3
20260904124004 78 209 0.0 3.0 0.01 0.01 0.01 93 1014.7
20260904123519 78 198 4.0 5.0 0.01 0.01 0.01 93 1014.2
20260904123506 78 230 1.0 3.0 0.01 0.01 0.01 93 1014.7
20260904123032 78 216 2.0 5.0 0.01 0.01 0.01 93 1014.2
20260904123015 78 223 1.0 3.0 0.01 0.01 0.01 93 1014.9
20260904122518 78 203 3.0 5.0 0.01 0.01 0.01 92 1014.2
20260904122508 78 223 1.0 3.0 0.01 0.01 0.01 92 1014.8
20260904122010 78 217 3.0 7.0 0.01 0.01 0.01 92 1014.2
20260904122006 78 219 1.0 3.0 0.01 0.01 0.01 92 1014.9
20260904121521 78 207 3.0 7.0 0.01 0.01 0.01 92 1014.1
20260904121518 78 219 1.0 2.0 0.01 0.01 0.01 92 1014.9
20260904121014 78 168 3.0 7.0 0.01 0.01 0.01 92 1014.1
20260904121012 78 222 0.0 2.0 0.01 0.01 0.01 92 1014.9
20260904120512 78 201 4.0 9.0 0.01 0.01 0.01 92 1014.1
20260904120503 78 209 1.0 3.0 0.01 0.01 0.01 92 1014.7
20260904120038 78 189 5.0 9.0 0.01 0.01 0.01 92 1014.0
20260904120017 78 211 1.0 3.0 0.01 0.01 0.01 92 1014.6
20260904115512 78 208 5.0 9.0 0.01 0.01 0.01 92 1013.9
20260904115509 78 204 1.0 3.0 0.01 0.01 0.01 92 1014.6
20260904115013 78 198 4.0 7.0 0.01 0.01 0.01 92 1014.1
20260904114531 78 182 3.0 7.0 0.00 0.00 0.00 92 1014.1
20260904114517 78 235 0.0 3.0 0.00 0.00 0.00 92 1014.8
20260904114009 78 218 3.0 7.0 0.00 0.00 0.00 92 1014.1
20260904114005 78 132 0.0 2.0 0.00 0.00 0.00 92 1014.7
20260904113512 78 199 3.0 8.0 0.00 0.00 0.00 92 1014.0
20260904113505 78 170 0.0 2.0 0.00 0.00 0.00 92 1014.7
20260904113036 78 140 4.0 8.0 0.00 0.00 0.00 92 1014.0
20260904113019 78 147 0.0 2.0 0.00 0.00 0.00 92 1014.6
20260904112509 78 119 4.0 7.0 0.00 0.00 0.00 92 1014.0
20260904112506 78 157 1.0 2.0 0.00 0.00 0.00 92 1014.7
20260904112007 77 205 2.0 4.0 0.00 0.00 0.00 92 1014.0
20260904111522 78 175 0.0 2.0 0.00 0.00 0.00 92 1014.6
20260904111504 78 161 1.0 5.0 0.00 0.00 0.00 92 1014.0
20260904111005 78 118 1.0 10.0 0.00 0.00 0.00 92 1014.0
20260904110509 77 137 1.0 4.0 0.00 0.00 0.00 92 1014.7
20260904110507 77 163 3.0 10.0 0.00 0.00 0.00 92 1014.0
20260904110027 77 213 0.0 4.0 0.00 0.00 0.00 91 1014.7
20260904110003 77 155 2.0 5.0 0.00 0.00 0.00 91 1014.1
20260904105505 77 156 1.0 5.0 0.00 0.00 0.00 91 1014.1
20260904105008 77 175 0.0 2.0 0.00 0.00 0.00 91 1014.7
20260904105003 77 151 1.0 3.0 0.00 0.00 0.00 91 1014.1
20260904104527 77 150 0.0 2.0 0.00 0.00 0.00 90 1014.8
20260904104503 77 148 0.0 2.0 0.00 0.00 0.00 90 1014.1
20260904104010 77 171 0.0 2.0 0.00 0.00 0.00 90 1014.7
20260904104002 77 134 0.0 2.0 0.00 0.00 0.00 90 1014.0
20260904103506 77 131 0.0 3.0 0.00 0.00 0.00 90 1014.6
20260904103502 77 86 1.0 4.0 0.00 0.00 0.00 90 1013.9
20260904103019 77 155 1.0 4.0 0.00 0.00 0.00 90 1013.9
20260904103012 77 159 0.0 3.0 0.00 0.00 0.00 90 1014.6
20260904102506 77 178 0.0 2.0 0.00 0.00 0.00 90 1014.6
20260904102501 77 151 1.0 2.0 0.00 0.00 0.00 90 1013.9
20260904102005 77 132 0.0 2.0 0.00 0.00 0.00 90 1014.7
20260904102003 77 147 0.0 2.0 0.00 0.00 0.00 90 1014.0
20260904101519 77 165 0.0 2.0 0.00 0.00 0.00 90 1014.7
20260904101515 77 179 0.0 2.0 0.00 0.00 0.00 90 1014.0
20260904101010 78 130 0.0 3.0 0.00 0.00 0.00 90 1014.0
20260904101007 78 144 0.0 2.0 0.00 0.00 0.00 90 1014.6
20260904100507 78 80 0.0 2.0 0.00 0.00 0.00 89 1014.6
20260904100503 78 96 1.0 2.0 0.00 0.00 0.00 89 1014.0
20260904100026 78 88 0.0 2.0 0.00 0.00 0.00 89 1013.9
20260904100014 78 116 0.0 2.0 0.00 0.00 0.00 89 1014.6
20260904095511 78 101 0.0 2.0 0.00 0.00 0.00 89 1013.9
20260904095509 78 116 0.0 2.0 0.00 0.00 0.00 89 1014.6
20260904095014 78 115 0.0 2.0 0.00 0.00 0.00 89 1014.5
20260904094523 78 115 0.0 2.0 0.00 0.00 0.00 88 1014.5
20260904094508 78 101 0.0 2.0 0.00 0.00 0.00 88 1013.8
20260904094008 78 103 0.0 2.0 0.00 0.00 0.00 89 1014.5
20260904094001 78 73 0.0 2.0 0.00 0.00 0.00 89 1013.8
20260904093510 78 103 0.0 2.0 0.00 0.00 0.00 88 1014.5
20260904093502 78 73 0.0 2.0 0.00 0.00 0.00 88 1013.7
20260904093028 78 90 0.0 2.0 0.00 0.00 0.00 88 1014.5
20260904093007 78 71 0.0 2.0 0.00 0.00 0.00 88 1013.7
20260904092506 78 126 0.0 2.0 0.00 0.00 0.00 88 1014.5
20260904092502 78 71 0.0 2.0 0.00 0.00 0.00 88 1013.7
20260904092007 78 105 0.0 2.0 0.00 0.00 0.00 88 1014.4
20260904092005 78 71 0.0 2.0 0.00 0.00 0.00 88 1013.7
20260904091514 78 105 0.0 2.0 0.00 0.00 0.00 88 1014.4
20260904091511 78 128 0.0 2.0 0.00 0.00 0.00 88 1013.6
20260904091008 78 122 0.0 2.0 0.00 0.00 0.00 88 1014.4
20260904091003 78 128 0.0 2.0 0.00 0.00 0.00 88 1013.6
20260904090507 78 141 0.0 2.0 0.00 0.00 0.00 88 1014.3
20260904090024 78 92 0.0 1.0 0.00 0.00 0.00 88 1014.3
20260904090019 78 128 0.0 2.0 0.00 0.00 0.00 88 1013.5
20260904085513 78 105 0.0 1.0 0.00 0.00 0.00 88 1014.3
20260904085504 78 128 0.0 2.0 0.00 0.00 0.00 88 1013.5
20260904085007 78 103 0.0 2.0 0.00 0.00 0.00 87 1014.3
20260904085004 78 128 0.0 2.0 0.00 0.00 0.00 87 1013.6
20260904084533 78 128 0.0 2.0 0.00 0.00 0.00 87 1013.6
20260904084525 78 97 0.0 2.0 0.00 0.00 0.00 87 1014.4
20260904084018 78 128 0.0 2.0 0.00 0.00 0.00 87 1013.6
20260904084012 78 113 0.0 2.0 0.00 0.00 0.00 87 1014.4
20260904083511 78 142 0.0 2.0 0.00 0.00 0.00 87 1014.3
20260904083503 78 128 0.0 2.0 0.00 0.00 0.00 87 1013.6
20260904083017 78 160 0.0 2.0 0.00 0.00 0.00 87 1014.3
20260904083007 78 92 0.0 2.0 0.00 0.00 0.00 87 1013.6
20260904082512 78 146 0.0 2.0 0.00 0.00 0.00 87 1014.4
20260904082503 78 100 0.0 2.0 0.00 0.00 0.00 87 1013.6
20260904082012 78 137 0.0 2.0 0.00 0.00 0.00 87 1014.3
20260904082002 78 100 0.0 2.0 0.00 0.00 0.00 87 1013.6
20260904081515 78 118 0.0 2.0 0.00 0.00 0.00 87 1014.3
20260904081510 78 100 0.0 2.0 0.00 0.00 0.00 87 1013.6
20260904081006 78 119 0.0 2.0 0.00 0.00 0.00 87 1014.3
20260904080508 78 184 0.0 2.0 0.00 0.00 0.00 87 1014.4
20260904080014 78 184 0.0 2.0 0.00 0.00 0.00 87 1014.5
20260904080008 78 155 0.0 2.0 0.00 0.00 0.00 87 1013.8
20260904075512 78 184 0.0 2.0 0.00 0.00 0.00 87 1014.4
20260904075509 78 155 0.0 2.0 0.00 0.00 0.00 87 1013.7
20260904075011 79 155 0.0 2.0 0.00 0.00 0.00 86 1013.6
20260904074527 79 176 0.0 2.0 0.00 0.00 0.00 86 1014.4
20260904074509 79 155 0.0 3.0 0.00 0.00 0.00 86 1013.6
20260904074007 79 155 0.0 3.0 0.00 0.00 0.00 86 1013.7